Location: Unspecified
(43.4680°N, 87.1740°E)
Time: 20:55:44
(UTC+00:00)

FALCON 9 DEB - Pass Details

Date: 17 April 2021
Orbit: 422 x 435 km, 53.0° (Epoch: 12 May)

Event Time Altitude Azimuth Distance (km) Brightness Sun altitude
Rises 15:13:05 0° 245° (WSW) 2,379 7.2 -22.4°
Reaches altitude 10° 15:15:12 10° 250° (WSW) 1,518 6.2 -22.7°
Enters shadow 15:18:10 50° 300° (WNW) 553 3.9 -23.1°
